User: anonymous   Login
Location: Unspecified
(0.0000°N, 0.0000°E)
Time: 15:14:53
(UTC+00:00)
Language:

Aussat K1 - Orbit

View from above orbital plane
View from above orbital plane
View from above satellite
View from above satellite

Ground track
Ground track

The orbit data is extracted from the following two-line orbital elements,

1 15993U 85076B   14354.22229866 -.00000207  00000-0  00000+0 0  8771
2 15993 014.9490 017.1676 0003462 227.1394 209.8712 00.99759216 77705
Epoch (UTC): 20 December 2014 05:20:06
Eccentricity: 0.0003462
inclination: 14.9490°
perigee height: 35916 km
apogee height: 35945 km
right ascension of ascending node: 17.1676°
argument of perigee: 227.1394°
revolutions per day: 0.99759216
mean anomaly at epoch: 209.8712°
orbit number at epoch: 7770

The dashed part of the orbit path shows where the satellite is in the earth's shadow,  

DLR